Location: N�rnberg
(49.4489°N, 11.0797°E)
Time: 18:24:21
(UTC+01:00)

ISS - Pass Details

Date: 11 January 2018
Orbit: 402 x 407 km, 51.6° (Epoch: 19 January)

Event Time Altitude Azimuth Distance (km) Brightness Sun altitude
Exits shadow 05:41:19 45° 98° (E) 562 -2.8 -23.1°
Drops below altitude 10° 05:43:44 10° 105° (ESE) 1,466 0.1 -22.7°
Sets 05:45:49 0° 106° (ESE) 2,326 1.5 -22.4°
